Weather History for Beckley, WV

Change the Weather History Date:

Friday, December 31, 2010

  Actual Average Record
Temperature  
Mean Temperature 49 °F 31 °F  
Max Temperature 59 °F 40 °F 71 °F (1972)
Min Temperature 39 °F 23 °F -14 °F (1899)
Degree Days  
Heating Degree Days 16 34  
Month to date heating degree days 1257 953  
Since 1 July heating degree days 2219 2093  
Cooling Degree Days 0 0  
Month to date cooling degree days 0 0  
Year to date cooling degree days 871 557  
Moisture  
Dew Point 36 °F    
Average Humidity 66    
Maximum Humidity 79    
Minimum Humidity 53    
Precipitation  
Precipitation 0.00 in 0.09 in 1.67 in (1975)
Month to date precipitation 2.28 3.00  
Year to date precipitation 43.28 41.19  
Snow  
Snow 0.00 in - - ()
Month to date snowfall 47.3  
Since 1 September snowfall 47.3  
Snow Depth 5.00 in    
Sea Level Pressure  
Sea Level Pressure 30.14 in    
Wind  
Wind Speed 5 mph (SSE)    
Max Wind Speed 12 mph    
Max Gust Speed 17 mph    
Visibility 10 miles    
Events      
T = Trace of Precipitation, MM = Missing Value Source: NWS Daily Summary

Daily Weather History Graph

Daily Weather History Graph

Search for Another Location

Airport:

Trip Planner

Search our weather history database for the weather conditions in past years. The results will help you decide how hot, cold, wet, or windy it might be!

Date:

Astronomy

Dec. 31, 2010 Rise Set
Actual Time 7:39 AM EST 5:15 PM EST
Civil Twilight 7:10 AM EST 5:44 PM EST
Nautical Twilight 6:37 AM EST 6:17 PM EST
Astronomical Twilight 6:05 AM EST 6:49 PM EST
Moon 4:06 AM EST (12/31) 2:02 PM EST (12/31)
Length of Visible Light 10h 34m
Length of Day
9h 35m
Waning Crescent, 15% of the Moon is Illuminated
Dec 31
Waning Crescent
Jan 4
New
Jan 12
First Quarter
Jan 19
Full
Jan 26
Last Quarter

Hourly Weather History & Observations

Time (EST) Temp. Windchill Dew Point Humidity Pressure Visibility Wind Dir Wind Speed Gust Speed Precip Events Conditions
12:51 AM 41.0 °F 35.8 °F 28.9 °F 62% 30.12 in 10.0 mi SE 8.1 mph - N/A   Mostly Cloudy
1:51 AM 41.0 °F 35.8 °F 28.9 °F 62% 30.12 in 10.0 mi SE 8.1 mph - N/A   Overcast
2:20 AM 41.0 °F 37.1 °F 30.2 °F 65% 30.11 in 10.0 mi SE 5.8 mph - N/A   Overcast
2:28 AM 41.0 °F 36.4 °F 30.2 °F 65% 30.11 in 10.0 mi SE 6.9 mph - N/A   Overcast
2:51 AM 43.0 °F 40.3 °F 30.9 °F 62% 30.13 in 10.0 mi SSE 4.6 mph - N/A   Overcast
3:51 AM 45.0 °F - 32.0 °F 60% 30.13 in 10.0 mi Calm Calm - N/A   Mostly Cloudy
4:51 AM 44.1 °F 40.8 °F 33.1 °F 65% 30.14 in 10.0 mi South 5.8 mph - N/A   Overcast
5:51 AM 45.0 °F 43.5 °F 35.1 °F 68% 30.15 in 10.0 mi South 3.5 mph - N/A   Overcast
6:51 AM 43.0 °F - 35.1 °F 74% 30.17 in 10.0 mi Calm Calm - N/A   Overcast
7:51 AM 39.9 °F 36.7 °F 34.0 °F 79% 30.17 in 10.0 mi SE 4.6 mph - N/A   Clear
8:51 AM 44.1 °F 40.1 °F 34.0 °F 68% 30.18 in 10.0 mi SSE 6.9 mph - N/A   Clear
9:51 AM 45.0 °F - 33.1 °F 63% 30.21 in 10.0 mi Calm Calm - N/A   Clear
10:51 AM 52.0 °F - 37.0 °F 57% 30.19 in 10.0 mi Calm Calm - N/A   Clear
11:51 AM 55.0 °F - 42.1 °F 62% 30.17 in 10.0 mi SW 4.6 mph - N/A   Partly Cloudy
12:51 PM 55.9 °F - 42.1 °F 60% 30.16 in 10.0 mi WSW 5.8 mph - N/A   Clear
1:51 PM 57.0 °F - 42.1 °F 57% 30.14 in 10.0 mi West 4.6 mph - N/A   Mostly Cloudy
2:51 PM 57.9 °F - 42.1 °F 56% 30.13 in 10.0 mi SW 5.8 mph - N/A   Clear
3:51 PM 59.0 °F - 42.1 °F 53% 30.12 in 10.0 mi SW 5.8 mph - N/A   Clear
4:51 PM 54.0 °F - 37.0 °F 53% 30.13 in 10.0 mi SE 3.5 mph - N/A   Clear
5:51 PM 50.0 °F - 37.0 °F 61% 30.15 in 10.0 mi SSE 6.9 mph - N/A   Clear
6:51 PM 50.0 °F - 37.9 °F 63% 30.14 in 10.0 mi South 5.8 mph - N/A   Clear
7:51 PM 50.0 °F - 36.0 °F 59% 30.16 in 10.0 mi SSE 6.9 mph - N/A   Clear
8:51 PM 48.0 °F - 35.1 °F 61% 30.14 in 10.0 mi SE 6.9 mph - N/A   Clear
9:51 PM 48.9 °F - 36.0 °F 61% 30.13 in 10.0 mi SE 9.2 mph - N/A   Clear
10:51 PM 48.9 °F - 37.0 °F 64% 30.10 in 10.0 mi SE 8.1 mph - N/A   Scattered Clouds
11:51 PM 48.9 °F - 37.9 °F 66% 30.09 in 10.0 mi SE 8.1 mph - N/A   Mostly Cloudy